カタログに戻る

FENGYUN 1C DEB

LostSSO
NORAD 37910·DEBRIS·🇨🇳 China

打ち上げ May 10, 1999 から Taiyuan Satellite Launch Center

Loading…

次のパス (今後24時間)

TLE

古いSource: Space-Track

元期: Dec 8, 2011, 09:45 UTC

1 37910U 99025ENK 11342.40643757  .00002114  00000-0  10247-2 0  9996
2 37910  99.0233  38.7996 0051279 232.5082 191.6573 14.18836643153810

AllMySatでFENGYUN 1C DEBをリアルタイム追跡

Download on the App Store